Hourly Weather Roundup
Issued by NWS Central Illinois

Home | Current Version | Previous Version | Text Only | Print | Product List | Glossary On
Versions: 1 2 3 4 5 6 7 8 9 10 11 12 13 14 15 16 17 18 19 20 21 22 23 24 25 26 27 28 29 30 31 32 33 34 35 36 37 38 39 40 41 42 43 44 45 46 47 48 49 50
000
NZUS43 KILX 241010
HWRILX

AREA WEATHER ROUNDUP
NATIONAL WEATHER SERVICE, LINCOLN IL
500 AM CDT FRI OCT 24 2014


CITY           SKY/WX    TMP DP  RH WIND       PRES   REMARKS
BLOOMINGTON    CLOUDY    52  47  83 SW6       30.08R
CHAMPAIGN      PTCLDY    47  45  93 SE5       30.08R
DECATUR        PTCLDY    52  46  80 SW5       30.08S
FLORA          PTCLDY    51  47  87 CALM      30.11R
GALESBURG      FOG       43  43  98 CALM      30.06F VSB<1/4
JACKSONVILLE   CLOUDY    56  53  87 SW6       30.08S
LACON          CLEAR     44  42  93 CALM      30.06S
LAWRENCEVILLE  CLOUDY    50  47  89 CALM      30.11R
LITCHFIELD     MOCLDY    51  47  84 W5        30.09R
$$


CITY           SKY/WX    TMP DP  RH WIND       PRES   REMARKS
LINCOLN        CLEAR     47  45  91 CALM      30.06S
MACOMB         FOG       48  48 100 W7        30.08F VSB 1/4
MATTOON        CLOUDY    52  44  74 S7        30.08R
MT CARMEL AP   CLOUDY    54  50  87 CALM      30.11R
OLNEY-NOBLE AP CLOUDY    50  45  81 CALM      30.11R
PARIS          CLOUDY    49  47  93 SE3       30.10S
PEORIA         PTCLDY    49  44  83 CALM      30.07R
PONTIAC        CLEAR     43  42  97 CALM      30.08R FOG
RANTOUL        MOCLDY    49  46  92 CALM      30.08R FOG
ROBINSON       CLOUDY    52  48  84 CALM      30.11S
SPRINGFIELD    CLOUDY    50  46  86 CALM      30.08R
TAYLORVILLE    CLOUDY    48  45  87 SW6       30.08S
$$

...REGIONAL REPORTS...


CITY           SKY/WX    TMP DP  RH WIND       PRES   REMARKS
CHICAGO O`HARE CLOUDY    53  44  71 SW5       30.05R
KANKAKEE       CLOUDY    50  47  89 S5        30.08R
MOLINE         CLOUDY    48  47  96 CALM      30.06S
MOUNT VERNON   MOCLDY    48  45  87 CALM      30.11R
PITTSFIELD     MOCLDY    54  52  93 CALM      30.09S
QUINCY         FOG       55  54  96 CALM      30.07S VSB 1/4
ROCKFORD       FOG       45  44  97 S3        30.07S VSB 3/4
$$


CITY           SKY/WX    TMP DP  RH WIND       PRES   REMARKS
BURLINGTON     CLOUDY    54  52  93 CALM      30.06S
CEDAR RAPIDS   FOG       42  42 100 CALM      30.03S VSB 1/4
DES MOINES     FOG       55  54  96 S8        30.00F VSB 1/8
KIRKSVILLE     FOG       56  56 100 SW5       30.07S VSB 1/4
OTTUMWA        FOG       52  51  97 SW6       30.04S VSB 1/4
ST LOUIS       MOCLDY    54  48  80 W3        30.10R
$$


CITY           SKY/WX    TMP DP  RH WIND       PRES   REMARKS
TERRE HAUTE    CLOUDY    47  44  90 CALM      30.11R
EVANSVILLE     CLOUDY    46  43  89 CALM      30.12S
INDIANAPOLIS   PTCLDY    43  39  86 CALM      30.10R
LAFAYETTE      LGT RAIN  47  44  90 CALM      30.10R
MADISON        CLOUDY    49  48  97 NW5       30.04S FOG
MILWAUKEE      CLOUDY    52  49  89 W5        30.04S
$$





USA.gov is the U.S. government's official web portal to all federal, state and local government web resources and services.